North Adams, MA

7:26 AM EDT on July 28, 2017 (GMT -0400)
Harriman And West

Weather History for KAQW - November, 2013

Change the Weather History Date:

Friday, November 22, 2013

  Actual Average Record
Temperature  
Mean Temperature 42 °F -  
Max Temperature 46 °F 44 °F 66 °F (1999)
Min Temperature 37 °F 28 °F 14 °F (2014)
Degree Days  
Heating Degree Days 24    
Moisture  
Dew Point 37 °F    
Average Humidity 84    
Maximum Humidity 93    
Minimum Humidity 65    
Precipitation  
Precipitation 0.03 in - - ()
Sea Level Pressure  
Sea Level Pressure 30.09 in    
Wind  
Wind Speed 4 mph (West)    
Max Wind Speed 21 mph    
Max Gust Speed 29 mph    
Visibility 8 miles    
Events Rain    
Averages and records for this station are not official NWS values.
T = Trace of Precipitation, MM = Missing Value Source: NWS Daily Summary

Daily Weather History Graph

Daily Weather History Graph

Search for Another Location

Airport or City:

Trip Planner

Search our weather history database for the weather conditions in past years. The results will help you decide how hot, cold, wet, or windy it might be!

Date:

Astronomy

Nov. 22, 2013 Rise Set
Actual Time 6:53 AM EST 4:24 PM EST
Civil Twilight 6:22 AM EST 4:55 PM EST
Nautical Twilight 5:47 AM EST 5:29 PM EST
Astronomical Twilight 5:13 AM EST 6:03 PM EST
Moon 8:55 PM EST (11/22) 10:33 AM EST (11/22)
Length of Visible Light 10h 32m
Length of Day
9h 31m
Waning Gibbous, 78% of the Moon is Illuminated
Nov 22
Waning Gibbous
Nov 25
Last Quarter
Dec 2
New
Dec 9
First Quarter
Dec 17
Full

Hourly Weather History & Observations

Time (EST) Temp. Windchill Dew Point Humidity Pressure Visibility Wind Dir Wind Speed Gust Speed Precip Events Conditions
12:52 AM 37.9 °F 34.4 °F 27.0 °F 65% 30.35 in 10.0 mi East 4.6 mph - N/A   Scattered Clouds
1:52 AM 37.9 °F - 28.0 °F 68% 30.34 in 10.0 mi Calm Calm - N/A   Overcast
2:52 AM 37.0 °F - 30.0 °F 76% 30.31 in 10.0 mi Calm Calm - 0.00 in   Overcast
3:38 AM 37.4 °F 33.8 °F 32.0 °F 81% 30.27 in 10.0 mi East 4.6 mph - 0.00 in   Overcast
3:52 AM 37.9 °F - 32.0 °F 79% 30.29 in 10.0 mi Calm Calm - 0.00 in   Overcast
4:24 AM 37.4 °F 33.8 °F 33.8 °F 87% 30.25 in 10.0 mi East 4.6 mph - 0.00 in   Overcast
4:52 AM 39.0 °F 34.8 °F 33.1 °F 79% 30.25 in 10.0 mi ESE 5.8 mph - 0.00 in   Overcast
5:30 AM 37.4 °F - 33.8 °F 87% 30.23 in 10.0 mi Calm Calm - N/A   Overcast
5:52 AM 37.9 °F 31.5 °F 34.0 °F 86% 30.24 in 10.0 mi ESE 9.2 mph - 0.00 in Rain Light Rain
6:52 AM 39.0 °F 36.8 °F 35.1 °F 86% 30.22 in 9.0 mi East 3.5 mph - 0.00 in Rain Light Rain
7:52 AM 39.0 °F 34.0 °F 36.0 °F 89% 30.19 in 7.0 mi East 6.9 mph - 0.01 in Rain Light Rain
8:52 AM 39.9 °F 36.7 °F 37.9 °F 93% 30.17 in 4.0 mi ESE 4.6 mph - 0.01 in Rain Light Rain
9:52 AM 41.0 °F - 37.9 °F 89% 30.14 in 6.0 mi Calm Calm - 0.00 in   Overcast
10:05 AM 41.0 °F 39.0 °F 37.4 °F 87% 30.12 in 5.0 mi Variable 3.5 mph - 0.01 in   Overcast
10:38 AM 42.8 °F - 39.2 °F 87% 30.10 in 4.0 mi Calm Calm - 0.01 in   Overcast
10:52 AM 42.1 °F - 37.9 °F 85% 30.10 in 4.0 mi Calm Calm - 0.01 in   Overcast
11:52 AM 43.0 °F - 39.9 °F 89% 30.08 in 5.0 mi Calm Calm - N/A   Overcast
12:33 PM 44.6 °F - 41.0 °F 87% 30.03 in 6.0 mi Calm Calm - N/A   Overcast
12:52 PM 45.0 °F - 41.0 °F 86% 30.03 in 5.0 mi Calm Calm - N/A   Overcast
1:12 PM 46.4 °F - 42.8 °F 87% 30.01 in 7.0 mi Calm Calm - N/A   Overcast
1:52 PM 45.0 °F 43.5 °F 41.0 °F 86% 30.01 in 8.0 mi West 3.5 mph - N/A   Overcast
2:52 PM 45.0 °F 43.5 °F 43.0 °F 93% 30.01 in 8.0 mi WNW 3.5 mph - N/A   Overcast
3:52 PM 46.0 °F 43.9 °F 42.1 °F 86% 30.01 in 10.0 mi WNW 4.6 mph - N/A   Overcast
4:52 PM 45.0 °F 40.6 °F 42.1 °F 90% 29.97 in 10.0 mi West 8.1 mph - N/A   Overcast
5:52 PM 45.0 °F 43.5 °F 42.1 °F 90% 29.95 in 9.0 mi WNW 3.5 mph - N/A   Overcast
6:52 PM 45.0 °F 41.2 °F 41.0 °F 86% 29.93 in 8.0 mi West 6.9 mph - N/A   Overcast
7:52 PM 44.1 °F 41.5 °F 41.0 °F 89% 29.92 in 7.0 mi WSW 4.6 mph - N/A   Overcast
8:52 PM 44.1 °F - 41.0 °F 89% 29.91 in 7.0 mi Calm Calm - N/A   Overcast
9:52 PM 46.0 °F 43.9 °F 42.1 °F 86% 29.88 in 6.0 mi NW 4.6 mph - N/A   Overcast
10:52 PM 46.9 °F - 37.9 °F 71% 29.89 in 10.0 mi West 13.8 mph 25.3 mph N/A   Overcast
11:02 PM 46.4 °F 40.7 °F 37.4 °F 71% 29.88 in 10.0 mi West 12.7 mph 28.8 mph N/A   Overcast
11:52 PM 46.0 °F 38.3 °F 36.0 °F 68% 29.89 in 10.0 mi West 20.7 mph 26.5 mph N/A   Overcast